Precipitable_Water
0.21 0.22 0.22 0.21 0.21 0.24 0.26 0.28 0.27 0.29 0.27 0.21 0.21 0.24 0.25 0.25 0.24 0.28 0.33 0.33 0.39 0.49 0.52 0.51 0.48 0.54 0.58 0.60 0.60 0.63 0.63 0.62 0.63 0.66 0.66 0.67 0.64 0.63 0.65 0.64 0.63 0.62 0.58 0.57
0.22 0.26 0.24 0.20 0.17 0.16 0.17 0.21 0.24 0.23 0.20 0.21 0.23 0.23 0.23 0.23 0.26 0.30 0.34 0.38 0.44 0.45 0.46 0.45 0.49 0.53 0.57 0.59 0.60 0.64 0.63 0.64 0.65 0.63 0.64 0.66 0.64 0.62 0.63 0.63 0.63 0.59 0.61 0.64
0.17 0.24 0.23 0.18 0.18 0.19 0.20 0.21 0.20 0.17 0.20 0.26 0.28 0.28 0.31 0.31 0.31 0.34 0.39 0.41 0.38 0.39 0.42 0.46 0.46 0.52 0.56 0.61 0.64 0.63 0.63 0.65 0.64 0.63 0.62 0.65 0.63 0.61 0.60 0.64 0.63 0.64 0.63 0.60
0.17 0.17 0.11 0.13 0.16 0.18 0.18 0.18 0.20 0.20 0.23 0.24 0.22 0.27 0.31 0.34 0.36 0.45 0.45 0.38 0.37 0.38 0.41 0.48 0.52 0.54 0.57 0.63 0.63 0.63 0.63 0.62 0.62 0.60 0.59 0.60 0.61 0.60 0.59 0.61 0.60 0.61 0.61 0.59
0.14 0.13 0.14 0.13 0.14 0.15 0.15 0.16 0.17 0.17 0.19 0.20 0.22 0.24 0.26 0.40 0.43 0.49 0.47 0.40 0.38 0.39 0.40 0.44 0.48 0.54 0.57 0.64 0.66 0.65 0.62 0.60 0.60 0.59 0.56 0.56 0.56 0.57 0.58 0.58 0.58 0.58 0.58 0.55
0.16 0.13 0.12 0.11 0.17 0.20 0.22 0.17 0.23 0.28 0.35 0.36 0.30 0.24 0.36 0.53 0.56 0.44 0.40 0.36 0.34 0.38 0.39 0.42 0.45 0.48 0.50 0.56 0.61 0.60 0.59 0.57 0.57 0.57 0.54 0.53 0.54 0.54 0.55 0.56 0.54 0.55 0.54 0.48
0.15 0.15 0.15 0.15 0.19 0.22 0.17 0.20 0.35 0.36 0.37 0.36 0.33 0.46 0.50 0.56 0.39 0.39 0.35 0.31 0.35 0.38 0.36 0.39 0.43 0.43 0.43 0.48 0.53 0.57 0.56 0.57 0.55 0.54 0.53 0.52 0.52 0.52 0.52 0.52 0.52 0.51 0.48 0.42
0.17 0.15 0.13 0.23 0.24 0.23 0.32 0.37 0.41 0.37 0.37 0.35 0.40 0.50 0.58 0.43 0.32 0.28 0.26 0.30 0.35 0.34 0.35 0.38 0.39 0.39 0.38 0.40 0.48 0.53 0.53 0.53 0.54 0.52 0.51 0.51 0.50 0.50 0.50 0.49 0.48 0.45 0.39 0.36
0.17 0.18 0.26 0.28 0.27 0.28 0.38 0.41 0.37 0.38 0.45 0.42 0.42 0.47 0.55 0.39 0.34 0.26 0.29 0.32 0.33 0.32 0.31 0.34 0.36 0.38 0.36 0.40 0.44 0.46 0.49 0.49 0.52 0.51 0.50 0.50 0.48 0.48 0.47 0.47 0.45 0.41 0.37 0.32
0.20 0.17 0.20 0.21 0.22 0.28 0.33 0.37 0.40 0.38 0.41 0.47 0.45 0.49 0.49 0.40 0.29 0.26 0.29 0.29 0.31 0.31 0.30 0.33 0.37 0.39 0.40 0.42 0.43 0.44 0.43 0.46 0.48 0.49 0.48 0.48 0.48 0.48 0.46 0.45 0.42 0.36 0.33 0.31
0.22 0.23 0.25 0.25 0.26 0.28 0.28 0.28 0.29 0.34 0.38 0.47 0.49 0.48 0.44 0.35 0.29 0.28 0.29 0.30 0.31 0.30 0.31 0.32 0.37 0.39 0.42 0.43 0.43 0.41 0.42 0.42 0.43 0.46 0.47 0.47 0.46 0.46 0.45 0.43 0.38 0.35 0.34 0.33
0.14 0.19 0.23 0.20 0.24 0.25 0.25 0.25 0.27 0.29 0.34 0.45 0.57 0.49 0.45 0.42 0.38 0.34 0.31 0.32 0.32 0.33 0.34 0.35 0.37 0.38 0.42 0.45 0.44 0.42 0.40 0.39 0.39 0.41 0.43 0.46 0.45 0.44 0.46 0.44 0.43 0.41 0.39 0.36
0.17 0.19 0.19 0.19 0.21 0.21 0.19 0.24 0.33 0.36 0.44 0.54 0.56 0.54 0.47 0.41 0.35 0.34 0.35 0.35 0.36 0.37 0.38 0.38 0.40 0.41 0.45 0.47 0.47 0.43 0.41 0.41 0.41 0.41 0.42 0.43 0.43 0.42 0.40 0.42 0.42 0.41 0.40 0.38
0.21 0.22 0.21 0.22 0.21 0.23 0.26 0.26 0.31 0.40 0.53 0.58 0.51 0.50 0.43 0.37 0.34 0.34 0.35 0.37 0.38 0.40 0.42 0.43 0.43 0.43 0.48 0.50 0.49 0.46 0.45 0.43 0.42 0.42 0.43 0.43 0.43 0.41 0.40 0.38 0.34 0.33 0.37 0.35
0.22 0.21 0.21 0.21 0.21 0.19 0.22 0.31 0.43 0.50 0.55 0.51 0.45 0.39 0.36 0.35 0.35 0.37 0.39 0.40 0.40 0.42 0.44 0.45 0.45 0.45 0.49 0.49 0.47 0.45 0.44 0.43 0.43 0.43 0.43 0.43 0.42 0.41 0.39 0.36 0.34 0.33 0.32 0.31
0.24 0.27 0.30 0.29 0.31 0.37 0.41 0.46 0.50 0.50 0.53 0.47 0.40 0.35 0.37 0.39 0.39 0.39 0.40 0.39 0.36 0.36 0.39 0.41 0.44 0.47 0.49 0.49 0.47 0.46 0.45 0.44 0.44 0.43 0.42 0.41 0.40 0.39 0.37 0.35 0.33 0.31 0.29 0.28
0.31 0.33 0.40 0.44 0.46 0.48 0.47 0.50 0.40 0.39 0.45 0.40 0.36 0.37 0.38 0.37 0.38 0.37 0.35 0.36 0.36 0.36 0.39 0.40 0.42 0.45 0.47 0.47 0.46 0.45 0.44 0.43 0.43 0.42 0.40 0.40 0.39 0.36 0.35 0.33 0.32 0.31 0.30 0.30
0.35 0.36 0.41 0.50 0.42 0.38 0.35 0.36 0.40 0.39 0.37 0.36 0.38 0.40 0.38 0.35 0.31 0.29 0.30 0.31 0.31 0.32 0.35 0.38 0.42 0.44 0.44 0.45 0.45 0.44 0.43 0.41 0.41 0.39 0.39 0.37 0.36 0.35 0.34 0.33 0.32 0.31 0.32 0.31
0.33 0.36 0.37 0.38 0.35 0.35 0.39 0.39 0.36 0.35 0.36 0.38 0.38 0.35 0.34 0.30 0.28 0.28 0.30 0.29 0.29 0.29 0.32 0.36 0.37 0.38 0.38 0.40 0.40 0.40 0.38 0.38 0.37 0.36 0.35 0.34 0.33 0.33 0.32 0.32 0.31 0.30 0.31 0.30
0.35 0.37 0.36 0.37 0.38 0.36 0.37 0.37 0.36 0.36 0.38 0.38 0.36 0.32 0.27 0.26 0.28 0.29 0.30 0.27 0.29 0.31 0.34 0.34 0.35 0.35 0.35 0.35 0.35 0.35 0.34 0.33 0.32 0.31 0.31 0.31 0.30 0.30 0.30 0.29 0.28 0.29 0.29 0.29
0.38 0.38 0.35 0.35 0.36 0.37 0.38 0.39 0.41 0.44 0.43 0.39 0.32 0.26 0.25 0.28 0.29 0.29 0.27 0.26 0.30 0.33 0.33 0.33 0.33 0.33 0.33 0.33 0.33 0.32 0.32 0.31 0.30 0.30 0.29 0.29 0.28 0.28 0.28 0.28 0.28 0.28 0.28 0.28
0.36 0.35 0.33 0.33 0.33 0.33 0.38 0.41 0.46 0.43 0.36 0.31 0.29 0.27 0.27 0.27 0.27 0.28 0.30 0.28 0.32 0.33 0.33 0.33 0.33 0.33 0.32 0.32 0.33 0.31 0.31 0.30 0.29 0.29 0.28 0.28 0.27 0.27 0.28 0.28 0.27 0.28 0.28 0.28
0.32 0.38 0.39 0.39 0.38 0.38 0.40 0.41 0.43 0.39 0.29 0.27 0.27 0.28 0.27 0.27 0.27 0.25 0.24 0.30 0.32 0.33 0.34 0.34 0.34 0.33 0.32 0.34 0.32 0.31 0.31 0.30 0.30 0.29 0.29 0.30 0.29 0.29 0.28 0.28 0.28 0.28 0.27 0.27
0.28 0.30 0.37 0.42 0.42 0.40 0.38 0.39 0.39 0.35 0.29 0.28 0.29 0.29 0.28 0.27 0.28 0.31 0.32 0.32 0.31 0.32 0.32 0.33 0.33 0.33 0.32 0.34 0.32 0.32 0.31 0.31 0.31 0.31 0.31 0.31 0.30 0.30 0.29 0.28 0.26 0.26 0.26 0.26
0.31 0.34 0.35 0.36 0.37 0.37 0.38 0.38 0.36 0.32 0.28 0.28 0.29 0.29 0.30 0.32 0.31 0.32 0.31 0.30 0.30 0.30 0.30 0.31 0.32 0.32 0.33 0.32 0.32 0.32 0.31 0.32 0.32 0.32 0.31 0.31 0.30 0.30 0.29 0.28 0.28 0.28 0.28 0.28
0.31 0.32 0.34 0.35 0.35 0.36 0.36 0.36 0.32 0.30 0.27 0.26 0.28 0.30 0.32 0.34 0.33 0.32 0.31 0.30 0.30 0.30 0.30 0.30 0.31 0.31 0.31 0.31 0.31 0.31 0.31 0.31 0.31 0.31 0.30 0.30 0.29 0.28 0.28 0.28 0.27 0.27 0.26 0.24
0.32 0.33 0.32 0.32 0.33 0.34 0.35 0.33 0.29 0.27 0.28 0.28 0.28 0.30 0.32 0.33 0.32 0.31 0.30 0.29 0.30 0.30 0.30 0.30 0.29 0.30 0.30 0.30 0.30 0.30 0.30 0.30 0.30 0.29 0.29 0.27 0.27 0.27 0.27 0.26 0.25 0.24 0.24 0.23
Wind_Speed
30 30 29 30 32 33 33 33 31 31 33 36 36 36 36 37 37 34 33 33 32 31 33 35 37 37 38 40 41 41 42 42 41 40 40 38 37 36 35 34 34 33 31 30
27 29 29 33 37 37 37 36 36 37 41 39 39 40 39 37 35 33 31 30 29 30 33 34 36 38 39 39 39 39 39 39 38 39 39 39 39 37 35 32 31 30 30 28
31 26 26 31 34 35 35 35 34 35 37 36 35 34 34 33 31 32 27 28 30 32 32 31 32 31 32 31 32 33 33 33 33 34 36 37 36 37 36 33 31 29 28 27
28 26 29 33 33 33 34 34 34 35 34 33 34 32 30 27 24 23 24 26 29 28 28 27 27 27 28 24 25 26 28 29 31 32 33 33 33 33 32 32 31 29 26 24
26 27 30 35 30 27 28 30 31 32 32 32 32 31 30 24 25 22 22 23 22 22 23 23 24 25 23 22 20 18 21 25 27 28 29 31 32 32 29 28 27 26 24 23
28 29 26 31 26 24 25 28 27 24 22 23 25 25 19 20 14 17 20 20 19 19 19 20 21 21 20 19 17 17 15 17 20 23 24 27 26 26 25 24 22 22 21 20
28 27 28 32 31 28 25 22 21 22 24 22 21 24 22 17 16 17 19 18 17 16 18 19 19 19 18 17 16 13 11 9 12 15 19 22 23 22 22 21 20 19 18 18
28 28 29 21 23 24 20 21 24 23 22 23 21 18 13 17 18 18 18 17 16 16 17 18 18 18 18 17 15 13 10 8 8 12 13 16 18 18 18 18 18 17 16 16
30 28 27 26 27 22 22 23 23 24 25 23 19 21 18 16 18 16 16 16 16 17 18 19 19 19 18 17 15 12 10 8 6 10 12 14 16 17 17 17 16 15 15 15
30 33 33 34 32 29 27 26 26 27 26 24 21 21 18 17 16 16 17 18 18 20 21 22 22 22 20 17 15 13 11 9 8 8 11 13 15 15 16 15 15 14 14 14
29 32 30 31 29 27 29 29 29 27 27 25 22 21 18 17 16 17 18 20 21 22 23 24 24 24 22 20 17 14 12 11 10 9 10 15 14 15 15 14 14 14 15 15
33 32 30 32 29 29 30 29 29 27 26 24 25 20 18 16 17 18 19 21 22 23 24 25 25 26 25 23 20 16 14 13 11 11 12 12 14 13 12 12 13 15 15 15
37 34 35 35 33 31 30 27 26 26 24 23 21 22 18 17 17 18 19 19 22 23 24 23 21 22 23 23 21 18 15 14 13 13 13 15 14 13 12 11 12 13 14 15
29 28 29 30 28 25 25 25 25 25 23 21 15 16 14 15 15 16 17 20 20 21 21 19 19 17 14 13 15 16 15 14 14 14 14 14 15 15 14 14 14 14 15 16
27 27 27 25 26 27 24 22 22 24 20 14 12 14 14 14 14 15 16 17 17 16 15 15 14 11 9 9 10 11 12 13 14 14 15 15 15 15 16 16 17 17 17 18
15 13 16 19 18 19 18 16 10 11 14 11 12 11 11 12 14 15 15 15 15 13 12 11 9 7 6 5 7 8 9 11 12 13 14 14 15 15 16 17 17 18 19 19
12 13 10 11 11 13 15 15 13 12 12 11 9 11 12 13 13 13 14 14 12 12 11 10 8 7 6 6 7 8 9 10 11 12 14 15 15 16 17 17 18 18 19 19
13 11 9 10 10 10 11 10 9 9 10 11 11 11 12 12 12 12 11 10 10 10 10 8 7 6 6 7 7 8 9 11 12 13 14 15 16 17 17 18 18 18 18 18
11 10 8 7 7 8 8 10 11 13 13 12 12 11 11 10 9 8 6 5 5 4 4 2 1 2 3 4 5 6 8 9 10 11 12 13 14 15 16 17 17 18 18 18
8 9 10 8 7 6 6 6 7 10 12 12 11 10 9 8 6 5 4 4 4 3 2 2 1 1 1 2 3 4 4 6 7 8 10 11 12 12 13 15 15 16 16 17
4 5 5 6 6 6 6 5 4 4 5 7 7 7 6 6 5 4 4 4 4 3 2 2 2 2 2 2 3 4 5 6 7 8 9 10 11 12 13 13 14 14 15 15
5 5 6 7 7 7 7 6 5 5 5 6 6 6 6 5 4 3 3 3 3 3 3 3 3 3 3 4 5 5 6 7 8 9 10 11 12 12 13 13 13 14 15 15
7 7 7 7 7 8 7 7 7 6 6 6 6 6 6 5 5 5 4 4 4 4 4 4 4 4 4 5 6 7 8 9 10 11 12 12 12 13 12 12 12 12 12 12
6 6 7 7 7 8 8 8 7 7 7 7 7 6 6 5 4 4 3 4 4 4 4 4 5 5 6 7 8 9 10 11 11 12 12 12 12 11 11 11 11 11 11 11
6 6 7 8 9 9 9 9 9 9 8 8 8 7 6 6 6 4 4 4 4 4 5 5 6 6 7 8 9 10 11 11 11 11 11 11 11 11 10 10 10 9 10 10
6 7 8 8 9 10 10 11 10 10 10 9 9 7 6 6 5 5 5 4 4 4 5 5 5 6 7 8 9 10 10 10 10 10 10 10 10 9 9 9 9 9 9 10
8 8 8 9 10 10 10 10 10 10 10 10 9 9 7 7 6 6 5 5 5 5 5 6 6 7 7 8 8 9 9 10 10 10 10 9 9 8 8 8 8 9 9 9
Wind_Direction
262 265 267 266 265 265 263 264 261 268 269 274 279 282 283 285 285 284 285 286 289 290 291 292 293 290 286 279 275 272 266 261 257 252 249 247 247 247 248 248 248 250 250 251
262 263 264 263 264 265 265 266 269 272 275 279 282 282 281 281 279 282 285 287 291 294 295 295 294 293 289 284 276 271 264 259 254 250 247 245 244 244 245 247 247 246 247 250
264 264 264 263 264 265 268 266 267 268 272 275 275 276 277 278 281 281 283 290 294 297 297 297 298 300 298 289 279 271 264 256 252 248 244 243 242 242 242 245 244 247 249 250
266 270 263 267 270 271 271 270 270 272 273 273 277 277 277 282 282 285 285 292 297 297 298 298 299 301 303 297 297 276 265 255 251 248 244 240 239 239 239 241 243 246 245 243
264 264 271 272 272 276 276 275 275 278 278 276 278 277 273 274 275 275 283 294 296 297 299 301 304 304 301 298 304 296 274 256 253 243 238 236 235 236 235 235 237 238 237 233
260 264 266 270 275 275 279 274 278 276 284 287 286 275 275 276 252 275 288 292 295 299 303 304 308 310 308 305 298 307 297 258 253 239 236 228 228 229 229 231 232 227 224 223
257 261 268 272 274 270 267 276 279 281 286 283 280 273 263 256 275 280 287 287 292 300 306 308 310 315 315 313 306 305 311 278 251 234 226 223 222 224 224 222 217 211 213 218
255 258 262 267 268 266 276 276 280 282 281 280 275 270 264 265 276 282 281 280 287 297 304 307 308 312 311 311 310 302 302 294 250 225 218 216 214 212 206 200 199 205 213 219
255 258 261 264 270 274 268 279 279 278 281 272 272 266 272 268 273 272 275 277 284 294 300 305 305 307 309 310 305 298 291 280 266 227 221 211 202 196 197 203 207 215 220 223
261 262 265 265 266 266 273 270 280 277 275 277 262 254 267 272 267 267 273 279 285 291 297 299 300 299 298 295 294 287 280 270 245 230 217 206 203 207 206 207 216 221 223 228
265 266 266 265 266 268 270 272 275 278 270 273 255 256 261 266 265 268 274 281 287 289 292 295 295 293 289 284 279 275 269 257 244 229 218 211 210 209 213 221 226 228 232 237
262 264 265 267 267 269 271 272 271 274 270 268 259 255 256 270 270 274 281 286 289 291 294 295 294 290 280 273 265 260 258 252 240 230 218 210 207 210 214 224 232 239 241 245
263 264 264 265 265 266 267 267 268 269 261 267 253 258 249 264 273 280 285 290 294 295 296 296 296 298 279 261 251 248 247 241 233 229 222 216 215 218 227 236 241 246 247 248
259 261 262 257 255 257 259 264 267 266 254 254 238 251 267 269 276 282 291 296 299 300 298 295 296 294 284 256 239 240 238 232 229 227 224 223 226 234 242 248 252 254 255 254
256 255 256 257 256 259 256 260 263 253 241 219 239 257 265 270 281 289 295 299 301 305 303 304 299 286 278 253 235 227 225 226 224 226 226 231 236 241 250 254 257 257 257 258
242 249 259 256 250 249 245 244 260 218 213 234 250 255 267 278 286 292 296 297 299 301 302 304 305 287 266 234 225 216 219 220 223 227 230 237 244 250 255 258 259 260 260 259
233 246 263 242 238 224 224 235 242 248 233 239 249 261 269 279 286 292 295 297 296 296 296 294 288 276 258 239 232 231 230 229 231 236 242 249 254 258 261 262 262 262 261 257
229 237 252 218 218 220 228 228 235 237 245 253 262 266 273 280 283 290 291 292 294 297 297 289 276 263 250 243 243 243 241 242 246 251 255 258 261 263 264 264 264 264 261 257
230 242 241 231 246 252 239 250 257 254 253 255 258 263 268 275 281 283 284 291 303 313 323 324 301 258 240 242 246 249 250 251 256 259 261 263 265 266 267 267 265 265 261 258
244 251 255 248 250 245 252 261 267 256 247 245 248 253 263 261 256 261 272 292 304 297 293 289 291 271 248 257 265 264 261 263 267 269 270 271 272 272 271 270 269 266 261 258
262 253 244 234 230 246 238 238 238 230 228 232 238 241 234 233 236 249 259 275 284 283 271 261 278 274 267 269 289 286 283 284 284 282 279 278 278 278 276 273 269 266 263 262
273 256 245 242 238 231 227 230 233 240 243 247 235 216 210 214 225 245 271 268 267 266 260 272 273 269 266 277 292 294 295 293 293 290 286 285 283 280 277 275 272 269 266 264
278 266 251 239 230 222 224 230 238 245 246 223 211 210 218 223 234 247 265 275 263 264 266 268 267 273 267 290 295 296 297 298 297 294 292 289 286 283 280 277 275 273 269 266
270 255 240 232 224 222 227 236 243 244 233 219 217 221 219 230 248 263 262 260 262 263 267 270 273 275 274 292 296 297 299 299 299 298 296 292 289 284 281 278 276 273 272 269
270 254 239 235 234 238 236 241 244 237 227 222 223 225 231 242 248 251 259 258 252 270 282 283 281 278 286 296 299 300 301 302 303 302 298 294 291 287 283 278 278 275 275 273
266 258 249 250 246 244 243 242 240 231 225 224 223 224 232 239 243 249 250 247 262 278 288 289 287 291 297 302 304 307 308 308 308 307 303 299 295 288 281 279 278 278 278 279
271 263 260 257 254 247 243 240 231 228 226 223 222 226 234 239 243 242 243 252 264 280 288 291 291 297 303 307 310 312 314 314 312 310 307 301 296 291 284 281 281 281 282 282